VK2HN Weather Reports


Display with metric or nautical units.
time (UTC)temp
F
wind
direction
speed
MPH
gust
MPH
rain 1hr
in
rain 24hr
in
rain mn
in
humidity
%
barometer
mb
20260504151043 62 141 0.0 0.0 0.00 0.00 0.00 97 1017.0
20260504150543 62 141 0.0 0.0 0.00 0.00 0.00 97 1016.7
20260504141043 63 142 0.0 0.0 0.00 0.00 0.00 96 1016.9
20260504140543 63 142 0.0 0.0 0.00 0.00 0.00 96 1016.7
20260504130543 62 142 1.0 2.0 0.00 0.00 0.00 96 1016.9
20260504110544 63 104 0.0 0.0 0.00 0.00 0.00 92 1016.1
20260504100544 64 102 0.0 0.0 0.00 0.00 0.00 91 1015.4
20260504081544 65 71 0.0 0.0 0.00 0.00 0.00 95 1015.3
20260504081044 65 71 0.0 0.0 0.00 0.00 0.00 95 1015.2
20260504080544 65 71 0.0 0.0 0.00 0.00 0.00 95 1015.3
20260504050544 68 9 1.0 4.0 0.00 0.00 0.00 90 1014.9
20260504045544 67 138 0.0 2.0 0.00 0.00 0.00 92 1014.9
20260504045044 67 16 0.0 5.0 0.00 0.00 0.00 92 1015.0
20260504044544 67 53 0.0 3.0 0.00 0.00 0.00 93 1015.0
20260504044044 67 183 1.0 2.0 0.00 0.00 0.00 93 1015.1
20260504043544 67 108 0.0 3.0 0.00 0.00 0.00 94 1015.2
20260504043044 66 108 0.0 3.0 0.00 0.00 0.00 94 1015.2
20260504042544 66 119 0.0 3.0 0.00 0.00 0.00 94 1015.1
20260504042044 66 121 0.0 0.0 0.00 0.00 0.00 95 1015.2
20260504041544 66 122 1.0 4.0 0.00 0.00 0.00 95 1015.3
20260504041044 66 88 0.0 2.0 0.00 0.00 0.00 95 1015.2
20260504040544 66 88 0.0 2.0 0.00 0.00 0.00 95 1015.5
20260504040044 66 89 0.0 1.0 0.00 0.00 0.00 96 1015.4
20260504035544 66 89 0.0 1.0 0.00 0.00 0.00 96 1015.5
20260504035044 66 88 0.0 2.0 0.00 0.00 0.00 97 1015.6
20260504034544 66 85 0.0 0.0 0.00 0.00 0.00 97 1015.5
20260504034044 66 84 0.0 4.0 0.00 0.00 0.00 97 1015.7
20260504033544 65 117 0.0 0.0 0.00 0.00 0.00 98 1015.6
20260504033044 65 117 0.0 1.0 0.00 0.00 0.00 97 1015.7
20260504032544 65 118 0.0 2.0 0.00 0.00 0.00 98 1016.1
20260504032044 65 117 0.0 2.0 0.00 0.00 0.00 98 1016.1
20260504031544 64 117 0.0 0.0 0.00 0.00 0.00 98 1016.0
20260504031044 64 117 0.0 1.0 0.00 0.00 0.00 98 1016.1
20260504030544 64 115 0.0 1.0 0.00 0.00 0.00 98 1016.2
20260504030044 64 116 0.0 2.0 0.00 0.00 0.00 98 1016.2
20260504025544 64 116 0.0 0.0 0.00 0.00 0.00 98 1016.4
20260504025044 64 116 0.0 2.0 0.00 0.00 0.00 98 1016.4
20260504024544 64 116 0.0 4.0 0.00 0.00 0.00 98 1016.6
20260504024044 64 135 0.0 0.0 0.00 0.00 0.00 98 1016.7
20260504023544 64 135 0.0 0.0 0.00 0.00 0.00 98 1016.8
20260504023044 64 121 0.0 0.0 0.00 0.00 0.00 98 1016.9
20260504022544 64 121 0.0 0.0 0.00 0.00 0.00 98 1017.1
20260504022044 64 121 0.0 0.0 0.00 0.00 0.00 98 1017.4
20260504021544 64 121 0.0 0.0 0.00 0.00 0.00 98 1017.4
20260504021044 64 121 0.0 1.0 0.00 0.00 0.00 98 1017.5
20260504020544 64 121 0.0 0.0 0.00 0.00 0.00 98 1017.7
20260504020044 64 121 0.0 0.0 0.00 0.00 0.00 98 1017.9
20260504015544 63 121 0.0 0.0 0.00 0.00 0.00 98 1017.8
20260504015044 63 121 0.0 0.0 0.00 0.00 0.00 98 1017.8
20260504014544 63 121 0.0 0.0 0.00 0.00 0.00 98 1017.8
20260504014044 63 121 0.0 0.0 0.00 0.00 0.00 98 1018.0
20260504013544 63 121 0.0 0.0 0.00 0.00 0.00 98 1017.9
20260504013044 63 121 0.0 0.0 0.00 0.00 0.00 98 1018.1
20260504012544 63 121 0.0 0.0 0.00 0.00 0.00 98 1018.2
20260504012044 63 121 0.0 0.0 0.00 0.00 0.00 98 1018.3
20260504011544 63 121 0.0 0.0 0.00 0.00 0.00 98 1018.2
20260504011044 63 121 0.0 0.0 0.00 0.00 0.00 98 1018.4
20260504010544 63 121 0.0 0.0 0.00 0.00 0.00 98 1018.5
20260504010044 63 121 0.0 0.0 0.00 0.00 0.00 98 1018.6
20260504005545 63 121 0.0 0.0 0.00 0.00 0.00 98 1018.6
20260504005045 63 121 0.0 0.0 0.00 0.00 0.00 98 1018.6
20260504004545 63 121 0.0 0.0 0.00 0.00 0.00 98 1018.6
20260504004045 63 121 0.0 0.0 0.00 0.00 0.00 98 1018.5
20260504003545 63 121 0.0 0.0 0.00 0.00 0.00 98 1018.5
20260504003045 63 121 0.0 0.0 0.00 0.00 0.00 98 1018.3
20260504002545 63 121 0.0 0.0 0.00 0.00 0.00 98 1018.4
20260504002045 63 121 0.0 0.0 0.00 0.00 0.00 98 1018.4
20260504001545 63 121 0.0 0.0 0.00 0.00 0.00 98 1018.4
20260504001045 62 121 0.0 0.0 0.00 0.00 0.00 98 1018.2
20260504000545 62 119 0.0 0.0 0.00 0.00 0.00 98 1018.2
20260504000045 62 120 0.0 0.0 0.00 0.00 0.00 98 1018.2
20260503235545 62 119 0.0 0.0 0.00 0.00 0.00 99 1018.2
20260503235045 62 119 0.0 0.0 0.00 0.00 0.00 98 1018.1
20260503234545 62 119 0.0 0.0 0.00 0.00 0.00 98 1018.2
20260503234045 62 119 0.0 0.0 0.00 0.00 0.00 98 1018.1
20260503233545 61 119 0.0 0.0 0.00 0.00 0.00 98 1018.1
20260503233045 61 119 0.0 0.0 0.00 0.00 0.00 99 1018.1
20260503232545 61 119 0.0 0.0 0.00 0.00 0.00 98 1018.2
20260503232045 61 120 0.0 0.0 0.00 0.00 0.00 98 1018.2
20260503231545 61 120 0.0 0.0 0.00 0.00 0.00 98 1018.4
20260503231045 61 120 0.0 0.0 0.00 0.00 0.00 98 1018.4
20260503230545 61 120 0.0 0.0 0.00 0.00 0.00 98 1018.5
20260503230045 61 120 0.0 0.0 0.00 0.00 0.00 98 1018.6
20260503225545 61 120 0.0 0.0 0.00 0.00 0.00 99 1018.7
20260503225045 61 120 0.0 2.0 0.00 0.00 0.00 99 1018.6
20260503224545 61 120 0.0 0.0 0.00 0.00 0.00 99 1018.5
20260503224045 61 120 0.0 0.0 0.00 0.00 0.00 99 1018.4
20260503223545 61 119 0.0 0.0 0.00 0.00 0.00 99 1018.2
20260503223045 60 119 0.0 0.0 0.00 0.00 0.00 99 1018.1
20260503222545 60 119 0.0 0.0 0.00 0.00 0.00 99 1018.1
20260503222045 60 119 0.0 0.0 0.00 0.00 0.00 99 1018.0
20260503221545 60 119 0.0 0.0 0.00 0.00 0.00 99 1017.9
20260503221045 59 119 0.0 0.0 0.00 0.00 0.00 99 1017.7
20260503220545 59 119 0.0 0.0 0.00 0.00 0.00 99 1017.7
20260503220045 59 119 0.0 0.0 0.00 0.00 0.00 99 1017.7
20260503215545 59 119 0.0 0.0 0.00 0.00 0.00 99 1017.6
20260503215045 59 119 0.0 0.0 0.00 0.00 0.00 99 1017.6
20260503214545 59 119 0.0 0.0 0.00 0.00 0.00 99 1017.7
20260503214045 59 119 0.0 0.0 0.00 0.00 0.00 99 1017.6
20260503213545 58 119 0.0 0.0 0.00 0.00 0.00 99 1017.6
20260503213045 58 119 0.0 0.0 0.00 0.00 0.00 99 1017.5
20260503212545 58 119 0.0 0.0 0.00 0.00 0.00 99 1017.4
20260503212045 58 119 0.0 0.0 0.00 0.00 0.00 98 1017.4
20260503211545 58 119 0.0 0.0 0.00 0.00 0.00 98 1017.5
20260503211045 58 119 0.0 0.0 0.00 0.00 0.00 98 1017.5
20260503210545 58 119 0.0 2.0 0.00 0.00 0.00 99 1017.2
20260503210045 58 119 0.0 0.0 0.00 0.00 0.00 99 1017.3
20260503205545 57 119 0.0 0.0 0.00 0.00 0.00 98 1017.5
20260503205045 57 119 0.0 0.0 0.00 0.00 0.00 98 1017.3
20260503204545 57 119 0.0 0.0 0.00 0.00 0.00 98 1017.3
20260503204045 57 119 0.0 0.0 0.00 0.00 0.00 98 1017.1
20260503203545 57 119 0.0 0.0 0.00 0.00 0.00 98 1017.2
20260503203045 57 119 0.0 0.0 0.00 0.00 0.00 98 1017.1
20260503202545 57 119 0.0 0.0 0.00 0.00 0.00 98 1017.1
20260503202045 57 119 0.0 0.0 0.00 0.00 0.00 98 1017.0
20260503201545 57 119 0.0 0.0 0.00 0.00 0.00 98 1017.0
20260503201045 57 119 0.0 0.0 0.00 0.00 0.00 98 1016.9
20260503200545 57 119 0.0 0.0 0.00 0.00 0.00 98 1016.9
20260503200045 57 119 0.0 0.0 0.00 0.00 0.00 98 1016.8
20260503195545 57 119 0.0 0.0 0.00 0.00 0.00 98 1016.6
20260503195045 57 119 0.0 0.0 0.00 0.00 0.00 98 1016.5
20260503194545 57 119 0.0 0.0 0.00 0.00 0.00 98 1016.5
20260503194045 57 119 0.0 0.0 0.00 0.00 0.00 98 1016.6
20260503193545 57 119 0.0 0.0 0.00 0.00 0.00 98 1016.5
20260503193045 57 119 0.0 0.0 0.00 0.00 0.00 98 1016.3
20260503192545 57 119 0.0 0.0 0.00 0.00 0.00 98 1016.5
20260503192045 57 119 0.0 0.0 0.00 0.00 0.00 98 1016.3
20260503191545 57 119 0.0 0.0 0.00 0.00 0.00 98 1016.3
20260503191045 56 119 0.0 0.0 0.00 0.00 0.00 98 1016.4
20260503190545 56 119 0.0 0.0 0.00 0.00 0.00 98 1016.4
20260503190045 56 119 0.0 0.0 0.00 0.00 0.00 98 1016.3
20260503185545 56 119 0.0 0.0 0.00 0.00 0.00 98 1016.5
20260503185045 56 119 0.0 0.0 0.00 0.00 0.00 98 1016.5
20260503184545 56 119 0.0 0.0 0.00 0.00 0.00 98 1016.4
20260503184045 56 119 0.0 0.0 0.00 0.00 0.00 98 1016.4
20260503183545 56 119 0.0 0.0 0.00 0.00 0.00 98 1016.5
20260503183045 56 119 0.0 0.0 0.00 0.00 0.00 98 1016.4
20260503182545 56 119 0.0 0.0 0.00 0.00 0.00 98 1016.3
20260503182045 56 119 0.0 0.0 0.00 0.00 0.00 98 1016.4
20260503181545 56 119 0.0 0.0 0.00 0.00 0.00 98 1016.4
20260503181045 56 119 0.0 0.0 0.00 0.00 0.00 98 1016.3
20260503180545 56 119 0.0 0.0 0.00 0.00 0.00 98 1016.5
20260503180045 55 119 0.0 0.0 0.00 0.00 0.00 98 1016.4
20260503175545 55 119 0.0 0.0 0.00 0.00 0.00 98 1016.3
20260503175045 55 119 0.0 0.0 0.00 0.00 0.00 98 1016.3
20260503174545 55 119 0.0 0.0 0.00 0.00 0.00 98 1016.4
20260503174045 55 119 0.0 0.0 0.00 0.00 0.00 98 1016.4
20260503173545 55 119 0.0 0.0 0.00 0.00 0.00 98 1016.4
20260503173045 55 119 0.0 0.0 0.00 0.00 0.00 98 1016.5
20260503172545 55 119 0.0 0.0 0.00 0.00 0.00 98 1016.5
20260503172045 55 119 0.0 0.0 0.00 0.00 0.00 98 1016.4
20260503171545 56 119 0.0 0.0 0.00 0.00 0.00 98 1016.4
20260503171045 56 119 0.0 0.0 0.00 0.00 0.00 98 1016.5
20260503170545 56 119 0.0 0.0 0.00 0.00 0.00 98 1016.5